Regional Weather Roundup
Issued by NWS

Home | Current Version | Previous Version | Text Only | Print | Product List | Glossary Off
Versions: 1 2 3 4 5 6 7 8 9 10 11 12 13 14 15 16 17 18 19 20 21 22 23 24 25 26 27 28 29 30 31 32 33 34 35 36 37 38 39 40 41 42 43 44 45 46 47 48 49 50

000
ASUS43 KDTX 230301
RWRMI
MICHIGAN HOURLY REGIONAL WEATHER ROUNDUP
NATIONAL WEATHER SERVICE DETROIT/PONTIAC MI
1100 PM EDT FRI AUG 22 2014

NOTE: "FAIR" INDICATES FEW OR NO CLOUDS BELOW 12,000 FEET WITH NO
SIGNIFICANT WEATHER AND/OR OBSTRUCTION TO VISIBILITY.

MIZ047>049-052>055-059>063-066>070-074>076-081>083-230400-
SOUTHEAST LOWER MICHIGAN

CITY           SKY/WX    TMP DP  RH WIND       PRES   REMARKS
ADRIAN         CLOUDY    75  72  90 CALM      30.02R
ALMA           CLEAR     66  62  87 CALM      30.04S
ANN ARBOR      PTCLDY    73  66  78 NE6       30.03R
BAD AXE        CLOUDY    61  61 100 NE3       30.06R FOG
CARO           CLEAR     65  63  91 E3        30.03S
DETROIT CITY   CLOUDY    74  59  59 NE5       30.02R
DETROIT        MOCLDY    75  63  66 CALM      30.02R
FLINT          CLEAR     71  63  75 E6        30.04R
GROSSE ILE     PTCLDY    72  64  78 NE6       30.00S
HILLSDALE      PTCLDY    72  72 100 CALM      30.03R FOG
HOWELL         CLOUDY    72  67  87 E5        30.03R

CITY           SKY/WX    TMP DP  RH WIND       PRES   REMARKS
JACKSON        MOCLDY    74  71  91 NE3       30.02R
LAMBERTVILLE   PTCLDY    73  70  88 CALM      30.01S FOG
LANSING        CLOUDY    72  67  84 NE8       30.03R
LAPEER         FAIR      65  61  87 CALM      30.04S
MASON          CLOUDY    72  68  86 E6        30.03R
MONROE         MOCLDY    73  66  78 E7        29.99F
MT. CLEMENS    CLOUDY    67  61  78 N7        30.02R
PONTIAC        CLOUDY    71  61  70 NE5       30.03R
PORT HOPE        N/A     65  62  90 NE6       30.04S
PORT HURON     CLOUDY    64  63  94 N3        30.03R
TRI CITIES     MOCLDY    69  64  84 NE5       30.04R
TROY           CLOUDY    73  61  67 N5        30.04S
SAGINAW HB     CLEAR     68  66  94 CALM      30.03S
$$
MIZ043>046-050>051-056>058-064>065-071>073-077>080-230400-
SOUTHWEST LOWER MICHIGAN

CITY           SKY/WX    TMP DP  RH WIND       PRES   REMARKS
BATTLE CREEK   CLEAR     76  71  85 E3        30.02R
BENTON HARBOR  PTCLDY    74  71  91 CALM      29.98R
BIG RAPIDS     CLEAR     68  67  95 SE5       30.03R
COLDWATER      MOCLDY    74  72  92 CALM      30.01R FOG
FREMONT        FAIR      72  69  92 CALM      30.01R
HOLLAND        CLEAR     74  71  91 E3        30.00R FOG
GRAND RAPIDS   CLEAR     73  73 100 E8        30.02R
IONIA          CLOUDY    71  67  85 NE6       30.02R
KALAMAZOO      CLEAR     74  71  91 CALM      30.01R FOG
LUDINGTON      CLEAR     71  69  94 E5        30.01S
MARSHALL       MOCLDY    72  70  96 CALM      30.01R FOG
MOUNT PLEASANT CLEAR     64  62  93 CALM      30.03S
MUSKEGON       PTCLDY    75  70  84 E7        30.01R
SOUTH HAVEN    PTCLDY    74  74 100 CALM      29.99S
$$
MIZ016>042-230400-
NORTHERN LOWER MICHIGAN

CITY           SKY/WX    TMP DP  RH WIND       PRES   REMARKS
ALPENA         FOG       62  62 100 S3        30.07R VSB 1/2
BEAVER ISLAND  CLOUDY    68  65  90 E6        30.03S
BELLAIRE       CLOUDY    72  66  82 NE3       30.02R
CADILLAC       CLEAR     68  66  93 E3        30.05R
CHARLEVOIX     CLOUDY    73  67  81 E6        30.06S
FRANKFORT      CLOUDY    71  67  87 CALM      30.02R FOG
GAYLORD        CLOUDY    69  62  78 SE3       30.07R
GRAYLING       CLOUDY    70  67  88 SE3       30.07R
HARBOR SPRINGS CLOUDY    71  65  79 E8        30.04R
HOUGHTON LAKE  CLOUDY    68  62  81 E5        30.06S
MANISTEE       CLOUDY    70  66  88 E5        30.02R
OSCODA         CLOUDY    63  63 100 NE5       30.05S FOG
PELLSTON       PTCLDY    67  64  90 CALM      30.05S
ROGERS CITY    CLEAR     68  64  88 SE5       30.07R
TRAVERSE CITY  CLEAR     70  66  87 CALM      30.01R
$$
MIZ007>008-015-230400-
EASTERN UPPER MICHIGAN

CITY           SKY/WX    TMP DP  RH WIND       PRES   REMARKS
KINROSS          N/A     66  64  94 CALM      30.06S VSB 1/2
MACKINAC ISLAN PTCLDY    64  63  96 E5        30.05S
NEWBERRY       MOCLDY    65  64  94 E5        30.04S
S. S. MARIE    MOCLDY    68  64  87 NE3       30.05S
$$
MIZ004>006-011>014-085-230400-
CENTRAL UPPER MICHIGAN

CITY           SKY/WX    TMP DP  RH WIND       PRES   REMARKS
MANISTIQUE     CLOUDY    66  64  91 E5        30.03R
ESCANABA       CLOUDY    68  63  83 E3        30.02S
MENOMINEE      CLOUDY    70  66  88 E6        30.01S
SAWYER-GWINN   CLOUDY    69  66  91 SE6       30.04S
$$
MIZ001>003-009>011-084-230400-
WESTERN UPPER MICHIGAN

CITY           SKY/WX    TMP DP  RH WIND       PRES   REMARKS
IRON MOUNTAIN  CLOUDY    70  67  90 SE8       30.01S
HOUGHTON       CLOUDY    64  60  87 E6        30.04R
COPPER HARBOR    N/A     54  53  97 CALM      30.04S
$$

ABBREVIATIONS USED IN REMARKS
   TC - TEMPERATURE IN CELSIUS
  WCI - WIND CHILL INDEX
   HX - HEAT INDEX
  VSB - VISIBILITY




USA.gov is the U.S. government's official web portal to all federal, state and local government web resources and services.